[[{"header":{"parameterUnit":"m.s-1","parameterCategory":1,"la1":30.2991,"la2":30.254,"lo1":-89.0895,"lo2":-89.0444,"dy":0.0017,"dx":0.0017,"nx":28,"ny":28,"refTime":"2024-06-14T21:00:00:Z","depth":0,"parameterNumber":2,"parameterNumberName":"U-component_of_WINDS"},"data":[0,0,0,0,0,0,0,0,0,0,0,0,0,0,0,0,0,0,0,0,0,0,0,0,0,0,0,0,0,0,0,0,0,0,0,0,0,0,0,0,0,0,0,0,0,0,0,0,0,0,0,0,0,0,0,0,0,0,1.2102,1.2103,0,1.2178,1.2179,1.2179,1.2205,1.2205,1.2205,1.2205,1.2279,1.2281,1.2284,0,0,0,0,0,0,0,0,0,0,0,0,0,1.1978,1.198,1.2102,1.2103,1.2104,1.2178,1.2179,1.218,1.2205,1.2205,1.2205,1.2204,1.2279,1.2281,1.2284,0,0,0,0,0,0,0,0,0,0,0,0,0,1.204,1.1981,1.2102,1.2126,1.2129,1.2177,1.2179,1.218,1.2206,1.2205,1.2205,1.2204,1.2278,1.2281,1.2284,1.2314,0,0,1.2295,1.2296,0,0,0,0,0,0,0,0,1.2037,1.2045,1.2122,1.2124,1.2128,1.2182,1.2162,1.2225,1.2206,1.2176,1.2205,1.2204,1.2247,1.2253,1.2268,1.2317,1.232,1.2295,1.2297,1.2298,1.2299,0,0,0,0,0,0,0,1.2032,1.2042,1.2132,1.2123,1.2126,1.2132,1.214,1.2174,1.2213,1.2179,1.2181,1.219,1.2249,1.2265,1.227,1.2322,1.2295,1.2298,1.23,1.2301,1.2398,1.2398,0,0,0,0,0,0,1.2024,1.2038,1.213,1.2134,1.208,1.2135,1.2144,1.2165,1.2213,1.222,1.219,1.2191,1.2259,1.2266,1.2273,1.231,1.2298,1.2302,1.2304,1.2397,1.2398,1.2399,0,0,0,0,0,0,1.2022,1.2032,1.2127,1.2087,1.2099,1.2137,1.216,1.2167,1.2183,1.2221,1.2228,1.2199,1.2259,1.2268,1.2303,1.2313,1.2303,1.2306,1.2397,1.2397,1.2398,1.2384,0,0,0,0,0,0,1.2018,1.2031,1.2044,1.2087,1.2101,1.2157,1.2161,1.2168,1.2189,1.219,1.2232,1.2238,1.2259,1.2298,1.2307,1.2317,1.2309,1.2396,1.2397,1.2398,1.2384,1.2384,1.2385,0,0,0,0,0,1.2013,1.2036,1.2044,1.2055,1.2118,1.2157,1.2166,1.219,1.2189,1.2201,1.2226,1.2237,1.231,1.2301,1.2311,1.2323,1.2395,1.2397,1.2398,1.2384,1.2384,1.2385,0,0,0,0,0,0,1.1992,1.2042,1.2052,1.2089,1.2119,1.2162,1.2178,1.219,1.222,1.222,1.2248,1.2257,1.229,1.231,1.23,1.2353,1.2353,1.2357,1.2339,1.234,1.234,1.2335,1.2312,0,0,0,0,0,1.1992,1.2021,1.2063,1.2092,1.2107,1.214,1.2158,1.2174,1.2206,1.2218,1.2246,1.2275,1.2305,1.2324,1.2353,1.2387,1.2396,1.24,1.24,1.24,1.2403,1.2421,1.2423,1.2402,1.2402,1.2402,0,0,1.1992,1.2023,1.2039,1.2089,1.2114,1.2142,1.215,1.218,1.2201,1.2223,1.2258,1.2279,1.2313,1.2348,1.2365,1.2366,1.241,1.2402,1.2402,1.2404,1.2423,1.2425,1.2426,1.2403,1.2403,1.2403,0,0,1.2006,1.2033,1.206,1.2084,1.2122,1.2144,1.215,1.2191,1.2206,1.2242,1.2259,1.2284,1.2334,1.2358,1.2377,1.2399,1.241,1.2408,1.241,1.2428,1.2429,1.2431,1.2438,1.244,1.241,1.241,1.241,0,1.2,1.2045,1.2072,1.2101,1.2121,1.2143,1.217,1.2192,1.2237,1.2251,1.2251,1.2315,1.234,1.238,1.2385,1.24,1.2407,1.2403,1.2427,1.2429,1.2431,1.2438,1.2441,1.241,1.241,1.241,1.241,0,1.2036,1.2067,1.2084,1.2127,1.215,1.2178,1.2207,1.2227,1.2241,1.2262,1.2298,1.2329,1.2364,1.2375,1.2389,1.2417,1.2416,1.2422,1.2422,1.2432,1.2439,1.2442,1.2409,1.2409,1.2409,1.2409,0,0,1.2039,1.2097,1.2103,1.2122,1.2165,1.2189,1.2217,1.2253,1.2268,1.2299,1.2322,1.2364,1.237,1.2391,1.2407,1.2423,1.2438,1.2427,1.2428,1.2427,1.247,1.2465,1.2468,1.2445,1.2446,1.2447,1.2467,0,1.2058,1.211,1.2135,1.2176,1.2203,1.2224,1.2248,1.2277,1.2297,1.2323,1.2345,1.2374,1.2379,1.2392,1.2409,1.2433,1.2447,1.2432,1.2467,1.2468,1.2457,1.2472,1.2467,1.2485,1.247,1.247,1.247,0,1.2087,1.2118,1.2162,1.2201,1.2214,1.2235,1.2269,1.2294,1.2326,1.234,1.2364,1.238,1.2409,1.2408,1.2448,1.2437,1.2453,1.2467,1.2468,1.2472,1.2469,1.2475,1.2491,1.2493,1.2475,1.2475,1.2475,0,1.2084,1.2136,1.2169,1.2185,1.2232,1.2247,1.2267,1.2299,1.2318,1.2348,1.2361,1.2393,1.241,1.2435,1.2459,1.2456,1.2496,1.2497,1.2508,1.2507,1.2515,1.2514,1.2533,1.2526,1.2526,1.2526,1.2526,0,1.2102,1.2128,1.2168,1.2188,1.2217,1.2245,1.2273,1.2294,1.2322,1.2346,1.2365,1.2387,1.2418,1.2443,1.2462,1.2492,1.25,1.2511,1.2516,1.2509,1.2508,1.252,1.2519,1.2527,1.2526,1.2526,1.2526,0,1.2103,1.2131,1.2168,1.221,1.2221,1.224,1.2275,1.2295,1.2316,1.2346,1.2355,1.2388,1.2419,1.2445,1.2486,1.2498,1.2529,1.2535,1.2518,1.2521,1.253,1.2528,1.2556,1.2561,1.2551,1.2551,1.2551,0,1.2113,1.2133,1.2177,1.2195,1.2215,1.2243,1.2263,1.229,1.231,1.2348,1.2363,1.2396,1.2423,1.2471,1.2499,1.2529,1.2536,1.2543,1.2541,1.2533,1.2535,1.2534,1.2535,1.2543,1.2543,1.2543,1.2543,0,1.2127,1.214,1.2168,1.2202,1.2226,1.2253,1.2281,1.2294,1.2327,1.2348,1.238,1.2401,1.2443,1.2474,1.2508,1.2528,1.2541,1.2544,1.2548,1.2541,1.2531,1.2536,1.2518,1.2543,1.2543,1.2543,1.2543,1.2543,1.2132,1.2151,1.2184,1.2216,1.224,1.2265,1.2286,1.231,1.2337,1.2374,1.2388,1.242,1.2451,1.2498,1.2518,1.2543,1.2545,1.2551,1.2553,1.2553,1.2552,1.2527,1.255,1.255,1.255,1.255,1.255,0,1.2146,1.2169,1.2197,1.2236,1.226,1.2271,1.2302,1.2322,1.235,1.2379,1.2405,1.2442,1.2472,1.2502,1.2534,1.2548,1.2555,1.2556,1.2555,1.2559,1.2549,1.2542,1.255,1.255,1.255,1.255,1.255,1.255,1.2157,1.2189,1.2205,1.2249,1.2272,1.2304,1.2321,1.2344,1.2367,1.2407,1.2433,1.2452,1.2481,1.2515,1.2543,1.2551,1.2562,1.2561,1.257,1.256,1.256,1.2559,1.2553,1.2563,1.2563,1.2578,1.2578,1.2578]},{"header":{"parameterUnit":"m.s-1","parameterCategory":1,"la1":30.2991,"la2":30.254,"lo1":-89.0895,"lo2":-89.0444,"dy":0.0017,"dx":0.0017,"nx":28,"ny":28,"refTime":"2024-06-14T21:00:00:Z","depth":0,"parameterNumber":3,"parameterNumberName":"V-component_of_WINDS"},"data":[0,0,0,0,0,0,0,0,0,0,0,0,0,0,0,0,0,0,0,0,0,0,0,0,0,0,0,0,0,0,0,0,0,0,0,0,0,0,0,0,0,0,0,0,0,0,0,0,0,0,0,0,0,0,0,0,0,0,1.9138,1.9137,0,1.9068,1.9068,1.9067,1.8999,1.8998,1.8997,1.8996,1.8921,1.892,1.8919,0,0,0,0,0,0,0,0,0,0,0,0,0,1.9208,1.9207,1.9138,1.9137,1.9136,1.9069,1.9068,1.9067,1.8999,1.8998,1.8997,1.8996,1.8922,1.892,1.8919,0,0,0,0,0,0,0,0,0,0,0,0,0,1.9162,1.9207,1.9138,1.9094,1.909,1.9069,1.9068,1.9066,1.8999,1.8998,1.8996,1.8995,1.8922,1.892,1.8919,1.8934,0,0,1.8913,1.8913,0,0,0,0,0,0,0,0,1.9165,1.916,1.9102,1.9097,1.9092,1.9041,1.9065,1.9022,1.8999,1.9033,1.8996,1.8995,1.8962,1.8957,1.8947,1.8931,1.8927,1.8913,1.8912,1.8911,1.8911,0,0,0,0,0,0,0,1.9168,1.9162,1.911,1.9101,1.9095,1.9077,1.9069,1.9056,1.9006,1.903,1.9025,1.9018,1.8959,1.8948,1.8944,1.8926,1.8913,1.8912,1.8911,1.891,1.8918,1.8919,0,0,0,0,0,0,1.9178,1.9165,1.9112,1.9108,1.9126,1.9077,1.9068,1.9059,1.9006,1.8996,1.9019,1.9015,1.8952,1.8946,1.8941,1.8955,1.8911,1.891,1.8909,1.8917,1.8918,1.892,0,0,0,0,0,0,1.918,1.9174,1.9115,1.9135,1.9126,1.9077,1.9067,1.9058,1.9047,1.8997,1.8988,1.9018,1.8951,1.8944,1.8936,1.8951,1.8909,1.8907,1.8915,1.8917,1.8919,1.8983,0,0,0,0,0,0,1.9183,1.9175,1.9182,1.9136,1.9126,1.9113,1.9068,1.9058,1.9045,1.9039,1.8994,1.8985,1.8949,1.8939,1.8935,1.8948,1.8906,1.8914,1.8916,1.8918,1.8979,1.8987,1.8993,0,0,0,0,0,1.9185,1.9202,1.9182,1.9176,1.9133,1.9114,1.9108,1.9068,1.9046,1.9052,1.9019,1.8986,1.8951,1.8939,1.8933,1.8947,1.8912,1.8915,1.8918,1.8976,1.8985,1.8993,0,0,0,0,0,0,1.925,1.9195,1.9173,1.9176,1.915,1.9103,1.9108,1.9079,1.9058,1.9053,1.9003,1.8993,1.8991,1.8968,1.8956,1.8958,1.8927,1.8929,1.8973,1.8981,1.8988,1.8993,1.8904,0,0,0,0,0,1.9265,1.9255,1.9207,1.9214,1.9203,1.9158,1.9148,1.9119,1.909,1.9079,1.9046,1.9018,1.9,1.899,1.8971,1.8976,1.8964,1.8982,1.8989,1.8995,1.8997,1.8996,1.9003,1.8929,1.8929,1.8929,0,0,1.9294,1.9263,1.926,1.9227,1.9203,1.9193,1.9149,1.914,1.9132,1.9077,1.9068,1.9043,1.9008,1.9007,1.9005,1.8988,1.9015,1.8999,1.9004,1.9002,1.9,1.9007,1.9013,1.8931,1.8931,1.893,0,0,1.9344,1.932,1.9323,1.93,1.9266,1.9236,1.9237,1.9194,1.9175,1.9166,1.9124,1.9113,1.9084,1.906,1.9045,1.9085,1.9053,1.908,1.9116,1.9117,1.9122,1.9127,1.914,1.9146,1.9082,1.9083,1.9083,0,1.9385,1.9369,1.9327,1.9321,1.9307,1.9258,1.9259,1.9239,1.9201,1.9191,1.9173,1.9135,1.9109,1.91,1.911,1.91,1.9098,1.9085,1.9125,1.913,1.9134,1.9145,1.9151,1.9086,1.9086,1.9085,1.9085,0,1.9421,1.941,1.9416,1.9381,1.9367,1.9365,1.9322,1.9313,1.9286,1.9257,1.9247,1.9214,1.9186,1.9183,1.9155,1.917,1.9161,1.9135,1.9102,1.9145,1.9155,1.9159,1.9091,1.909,1.9089,1.9088,0,0,1.9508,1.945,1.9452,1.9435,1.9394,1.9384,1.938,1.9354,1.9347,1.9322,1.9315,1.9292,1.9267,1.925,1.9219,1.922,1.9252,1.9193,1.9191,1.9204,1.9265,1.9284,1.929,1.9231,1.9232,1.9232,1.9267,0,1.9549,1.9538,1.95,1.95,1.949,1.9443,1.9438,1.9412,1.9385,1.9371,1.934,1.9324,1.9294,1.9283,1.9281,1.9249,1.9263,1.9246,1.9223,1.9223,1.9232,1.9295,1.9316,1.935,1.9271,1.9272,1.9272,0,1.9595,1.9574,1.9574,1.9532,1.9526,1.9523,1.9496,1.9484,1.9452,1.9432,1.9413,1.9379,1.9369,1.934,1.9326,1.9315,1.9303,1.9285,1.9286,1.9281,1.9249,1.9291,1.936,1.9365,1.9278,1.9278,1.9277,0,1.9658,1.9629,1.9624,1.9611,1.9563,1.9562,1.9541,1.9508,1.9495,1.9472,1.9462,1.9438,1.9424,1.9405,1.9364,1.9347,1.9354,1.9321,1.9335,1.9337,1.9338,1.9338,1.9405,1.9333,1.9333,1.9333,1.9333,0,1.9707,1.9708,1.9652,1.9649,1.9648,1.9604,1.9604,1.9579,1.9551,1.9541,1.9499,1.949,1.9439,1.9424,1.9392,1.9384,1.9378,1.9361,1.9352,1.9364,1.9366,1.9355,1.9351,1.9334,1.9334,1.9334,1.9333,0,1.9776,1.9738,1.973,1.9685,1.9674,1.9676,1.9636,1.9631,1.9602,1.959,1.9585,1.9539,1.9519,1.9477,1.9446,1.9425,1.9424,1.9409,1.9435,1.9429,1.9445,1.9444,1.9506,1.9511,1.9437,1.9438,1.9439,0,1.9809,1.9809,1.9764,1.9755,1.9737,1.9723,1.971,1.9666,1.9654,1.9618,1.9617,1.9594,1.9573,1.9544,1.9506,1.9482,1.9465,1.9489,1.9461,1.9473,1.9464,1.9464,1.9463,1.9495,1.9496,1.9497,1.9497,0,1.9872,1.9853,1.9836,1.9813,1.9798,1.9778,1.9754,1.9749,1.97,1.9688,1.9668,1.9652,1.962,1.9598,1.9568,1.9544,1.9512,1.9507,1.9508,1.952,1.9534,1.9525,1.945,1.9505,1.9504,1.9504,1.9503,1.9503,1.9923,1.992,1.9888,1.9871,1.9849,1.9828,1.9821,1.9791,1.9774,1.9746,1.9721,1.9703,1.967,1.9626,1.9606,1.959,1.9574,1.9577,1.9577,1.9578,1.9583,1.9538,1.9584,1.9584,1.9584,1.9583,1.9583,0,1.9982,1.9959,1.9944,1.9913,1.9899,1.9871,1.9844,1.9833,1.9819,1.9791,1.9772,1.9749,1.9726,1.9688,1.9662,1.9656,1.9641,1.9651,1.965,1.9645,1.9599,1.96,1.9664,1.9664,1.9664,1.9664,1.9664,1.9664,2.0011,2.0005,1.9983,1.9965,1.9942,1.9925,1.9911,1.9891,1.9869,1.9845,1.9827,1.9803,1.977,1.9741,1.9719,1.9708,1.97,1.9715,1.9699,1.9656,1.9648,1.9641,1.9641,1.9713,1.9714,1.9746,1.9746,1.9746]}]]